User: anonymous   Login
Location: Vancouver
(49.2500°N, 123.1330°W)
Time: 13:53:12
(UTC-07:00)
Language:

H-2A R/B - Orbit

View from above orbital plane
View from above orbital plane
View from above satellite
View from above satellite

Ground track
Ground track

The orbit data is extracted from the following two-line orbital elements,

1 27601U 02056E   18113.68824833 +.00000014 +00000-0 +19851-4 0  9998
2 27601 098.3330 175.0812 0073438 094.3559 015.7604 14.31835055802242
Epoch (UTC): 23 April 2018 16:31:04
Eccentricity: 0.0073438
inclination: 98.3330°
perigee height: 733 km
apogee height: 838 km
right ascension of ascending node: 175.0812°
argument of perigee: 94.3559°
revolutions per day: 14.31835055
mean anomaly at epoch: 15.7604°
orbit number at epoch: 80224

The dashed part of the orbit path shows where the satellite is in the earth's shadow,  

DLR